Lufkin, TX

4:39 PM CDT on March 23, 2017 (GMT -0500)
Angelina County

Weather History for KLFK - November, 2011

Change the Weather History Date:

Tuesday, November 15, 2011

  Actual Average Record
Temperature  
Mean Temperature 73 °F 58 °F  
Max Temperature 83 °F 70 °F 85 °F (1945)
Min Temperature 63 °F 47 °F 20 °F (1916)
Degree Days  
Heating Degree Days 0 8  
Month to date heating degree days 85 90  
Since 1 July heating degree days 150 156  
Cooling Degree Days 8 1  
Month to date cooling degree days 47 25  
Year to date cooling degree days 3394 2569  
Growing Degree Days 22 (Base 50)    
Moisture  
Dew Point 65 °F    
Average Humidity 79    
Maximum Humidity 100    
Minimum Humidity 58    
Precipitation  
Precipitation 0.84 in 0.17 in 4.62 in (1918)
Month to date precipitation 2.37 2.60  
Year to date precipitation 25.54 42.10  
Snow  
Snow 0.00 in - - ()
Month to date snowfall 0.0  
Since 1 July snowfall 0.0  
Since 1 September snowfall 0.0  
Snow Depth 0.00 in    
Sea Level Pressure  
Sea Level Pressure 29.77 in    
Wind  
Wind Speed 7 mph (SSE)    
Max Wind Speed 21 mph    
Max Gust Speed 24 mph    
Visibility 6 miles    
Events Fog , Rain    
T = Trace of Precipitation, MM = Missing Value Source: NWS Daily Summary

Daily Weather History Graph

Daily Weather History Graph

Search for Another Location

Airport or City:

Trip Planner

Search our weather history database for the weather conditions in past years. The results will help you decide how hot, cold, wet, or windy it might be!

Date:

Astronomy

Nov. 15, 2011 Rise Set
Actual Time 6:46 AM CST 5:20 PM CST
Civil Twilight 6:20 AM CST 5:46 PM CST
Nautical Twilight 5:51 AM CST 6:15 PM CST
Astronomical Twilight 5:22 AM CST 6:44 PM CST
Moon 9:31 PM CST (11/15) 10:44 AM CST (11/15)
Length of Visible Light 11h 26m
Length of Day
10h 34m
Waning Gibbous, 79% of the Moon is Illuminated
Nov 15
Waning Gibbous
Nov 18
Last Quarter
Nov 25
New
Dec 2
First Quarter
Dec 10
Full

Hourly Weather History & Observations

Time (CST) Temp. Heat Index Dew Point Humidity Pressure Visibility Wind Dir Wind Speed Gust Speed Precip Events Conditions
12:53 AM 66.9 °F - 64.0 °F 90% 29.82 in 10.0 mi SSE 5.8 mph - N/A   Clear
1:53 AM 66.0 °F - 64.0 °F 93% 29.81 in 8.0 mi SSE 4.6 mph - N/A   Scattered Clouds
2:07 AM 66.2 °F - 64.4 °F 94% 29.82 in 9.0 mi SSE 3.5 mph - N/A   Mostly Cloudy
2:18 AM 66.2 °F - 64.4 °F 94% 29.82 in 8.0 mi SSE 4.6 mph - N/A   Partly Cloudy
2:53 AM 66.0 °F - 64.0 °F 93% 29.81 in 7.0 mi Calm Calm - N/A   Scattered Clouds
3:02 AM 64.4 °F - 64.4 °F 100% 29.82 in 1.8 mi Calm Calm - N/A   Mostly Cloudy
3:21 AM 66.2 °F - 64.4 °F 94% 29.82 in 2.5 mi Calm Calm - N/A   Overcast
3:31 AM 64.4 °F - 64.4 °F 100% 29.81 in 1.2 mi ESE 3.5 mph - N/A   Mostly Cloudy
3:42 AM 64.4 °F - 62.6 °F 94% 29.81 in 0.8 mi Calm Calm - N/A   Mostly Cloudy
3:51 AM 64.4 °F - 62.6 °F 94% 29.82 in 2.0 mi Calm Calm - N/A   Mostly Cloudy
3:52 AM 64.0 °F - 63.0 °F 96% 29.81 in 2.0 mi Calm Calm - N/A   Mostly Cloudy
4:00 AM 64.4 °F - 64.4 °F 100% 29.82 in 5.0 mi Calm Calm - N/A   Overcast
4:53 AM 66.0 °F - 64.0 °F 93% 29.80 in 7.0 mi SE 5.8 mph - N/A   Mostly Cloudy
5:10 AM 66.2 °F - 64.4 °F 94% 29.81 in 7.0 mi SE 5.8 mph - N/A   Mostly Cloudy
5:53 AM 66.9 °F - 64.9 °F 93% 29.80 in 7.0 mi SSE 9.2 mph - N/A   Mostly Cloudy
7:53 AM 70.0 °F - 68.0 °F 93% 29.82 in 7.0 mi South 8.1 mph - N/A   Overcast
8:26 AM 71.6 °F - 68.0 °F 88% 29.83 in 10.0 mi SSE 11.5 mph - N/A   Overcast
8:53 AM 72.0 °F - 69.1 °F 91% 29.83 in 10.0 mi South 8.1 mph - N/A   Overcast
9:26 AM 73.4 °F - 68.0 °F 83% 29.83 in 10.0 mi South 11.5 mph 17.3 mph N/A   Overcast
9:53 AM 75.0 °F - 66.9 °F 76% 29.82 in 10.0 mi South 10.4 mph - N/A   Mostly Cloudy
10:53 AM 79.0 °F - 66.9 °F 66% 29.81 in 10.0 mi South 8.1 mph 18.4 mph N/A   Mostly Cloudy
11:26 AM 80.6 °F 82.7 °F 66.2 °F 61% 29.81 in 10.0 mi South 9.2 mph - N/A   Scattered Clouds
11:53 AM 80.1 °F 82.1 °F 66.0 °F 62% 29.78 in 10.0 mi South 12.7 mph 20.7 mph N/A   Mostly Cloudy
12:53 PM 82.9 °F 85.0 °F 66.0 °F 56% 29.73 in 10.0 mi SSE 16.1 mph 20.7 mph 0.00 in   Scattered Clouds
1:53 PM 80.1 °F 81.9 °F 64.9 °F 60% 29.70 in 10.0 mi SSE 12.7 mph - N/A   Mostly Cloudy
2:53 PM 78.1 °F - 66.0 °F 66% 29.70 in 10.0 mi SSE 6.9 mph - N/A   Partly Cloudy
3:53 PM 75.0 °F - 66.9 °F 76% 29.71 in 5.0 mi South 5.8 mph - 0.03 in Rain Rain
4:14 PM 66.2 °F - 64.4 °F 94% 29.76 in 1.8 mi WSW 10.4 mph - 0.19 in Rain Heavy Rain
4:21 PM 66.2 °F - 64.4 °F 94% 29.78 in 1.2 mi SW 11.5 mph - 0.42 in Rain Heavy Rain
4:26 PM 66.2 °F - 64.4 °F 94% 29.76 in 0.8 mi West 11.5 mph - 0.70 in Rain Heavy Rain
4:29 PM 66.2 °F - 64.4 °F 94% 29.76 in 1.0 mi West 10.4 mph - 0.75 in Rain Heavy Rain
4:36 PM 66.2 °F - 64.4 °F 94% 29.73 in 2.5 mi WNW 9.2 mph - 0.77 in Rain Rain
4:44 PM 66.2 °F - 62.6 °F 88% 29.74 in 5.0 mi Variable 3.5 mph - 0.79 in Rain Rain
4:53 PM 66.0 °F - 64.0 °F 93% 29.73 in 10.0 mi SSE 5.8 mph - 0.80 in Rain Rain
5:53 PM 64.9 °F - 63.0 °F 93% 29.72 in 10.0 mi East 4.6 mph - 0.01 in   Clear
6:53 PM 66.0 °F - 64.0 °F 93% 29.73 in 10.0 mi NE 3.5 mph - 0.00 in Rain Light Rain
7:53 PM 66.0 °F - 64.0 °F 93% 29.73 in 10.0 mi East 4.6 mph - 0.00 in   Scattered Clouds
8:27 PM 66.2 °F - 64.4 °F 94% 29.73 in 10.0 mi SE 5.8 mph - N/A   Overcast
8:53 PM 66.9 °F - 64.9 °F 93% 29.73 in 10.0 mi SSE 5.8 mph - N/A   Overcast
9:53 PM 66.9 °F - 64.9 °F 93% 29.73 in 10.0 mi SE 5.8 mph - N/A   Overcast
10:29 PM 66.2 °F - 64.4 °F 94% 29.73 in 10.0 mi SSE 3.5 mph - N/A   Scattered Clouds
10:53 PM 64.9 °F - 64.0 °F 97% 29.71 in 9.0 mi SSE 3.5 mph - N/A   Clear
11:45 PM 64.4 °F - 62.6 °F 94% 29.72 in 1.2 mi SE 3.5 mph - N/A   Partly Cloudy
11:47 PM 62.6 °F - 62.6 °F 100% 29.72 in 0.8 mi ESE 3.5 mph - N/A   Mist
11:53 PM 63.0 °F - 62.1 °F 97% 29.71 in 0.5 mi Calm Calm - N/A Fog Fog